^^
B2 Weather Station Historical Data
Daily Summary for December 28, 2017 Units:  English    Metric   Both
Daily Weekly Monthly Yearly Custom
  High: Low: Average:
Temperature: 13.3 °F -4.7 °F 7.4 °F
Dew Point: 9.8 °F -9.5 °F 2.5 °F
Humidity: 87% 69% 80%
Wind Speed: 11.5mph 0.0mph 2.9mph
Wind Gust: 11.5mph - -
Wind- - South
Pressure: 30.80 in 30.44 in -
Precipitation: 0.00 in    
Historical Graphs
 
 
Tabular Data for December 28, 2017
Time Temperature Dew Point Pressure Wind Wind Speed Wind Gust Humidity Rainfall Rate (Hourly) solar
00:01 -1.0 °F -5.4 °F 30.80 in WNW 2.3 mph 2.3 mph 81% 0.00 in 0.0 W/m2
00:04 -1.0 °F -5.4 °F 30.80 in WNW 1.2 mph 1.2 mph 81% 0.00 in 0.0 W/m2
00:06 -0.9 °F -5.3 °F 30.80 in WNW 1.2 mph 1.2 mph 81% 0.00 in 0.0 W/m2
00:09 -0.9 °F -5.3 °F 30.79 in WNW 1.2 mph 1.2 mph 81% 0.00 in 0.0 W/m2
00:14 -0.8 °F -5.2 °F 30.79 in Calm   0.1 mph 81% 0.00 in 0.0 W/m2
00:16 -0.9 °F -5.3 °F 30.79 in Calm     81% 0.00 in 0.0 W/m2
00:18 -0.9 °F -5.3 °F 30.78 in Calm     81% 0.00 in 0.0 W/m2
00:22 -1.0 °F -5.4 °F 30.78 in Calm     81% 0.00 in 0.0 W/m2
00:27 -1.2 °F -5.9 °F 30.78 in Calm     80% 0.00 in 0.0 W/m2
00:28 -1.2 °F -5.9 °F 30.78 in WNW 1.0 mph   80% 0.00 in 0.0 W/m2
00:33 -1.3 °F -6.0 °F 30.78 in Calm     80% 0.00 in 0.0 W/m2
00:34 -1.3 °F -6.0 °F 30.78 in Calm     80% 0.00 in 0.0 W/m2
00:39 -1.8 °F -6.5 °F 30.78 in Calm     80% 0.00 in 0.0 W/m2
00:40 -1.8 °F -6.5 °F 30.78 in Calm     80% 0.00 in 0.0 W/m2
00:45 -2.7 °F -7.9 °F 30.78 in Calm     78% 0.00 in 0.0 W/m2
00:46 -2.9 °F -8.1 °F 30.78 in Calm     78% 0.00 in 0.0 W/m2
00:51 -3.6 °F -8.7 °F 30.77 in Calm     78% 0.00 in 0.0 W/m2
00:56 -3.9 °F -8.8 °F 30.77 in Calm     79% 0.00 in 0.0 W/m2
01:01 -4.1 °F -9.0 °F 30.77 in Calm     79% 0.00 in 0.0 W/m2
01:02 -4.1 °F -9.0 °F 30.77 in Calm     79% 0.00 in 0.0 W/m2
01:06 -4.4 °F -9.3 °F 30.77 in Calm     79% 0.00 in 0.0 W/m2
01:11 -4.6 °F -9.5 °F 30.77 in Calm     79% 0.00 in 0.0 W/m2
01:16 -4.7 °F -9.3 °F 30.77 in Calm     80% 0.00 in 0.0 W/m2
01:18 -4.7 °F -9.3 °F 30.77 in Calm     80% 0.00 in 0.0 W/m2
01:23 -4.6 °F -8.9 °F 30.77 in Calm     81% 0.00 in 0.0 W/m2
01:28 -4.5 °F -8.6 °F 30.77 in WNW 3.5 mph 3.5 mph 82% 0.00 in 0.0 W/m2
01:29 -4.4 °F -8.5 °F 30.77 in WNW 2.3 mph 2.3 mph 82% 0.00 in 0.0 W/m2
01:34 -4.1 °F -8.0 °F 30.78 in WNW 1.2 mph 1.2 mph 83% 0.00 in 0.0 W/m2
01:35 -4.0 °F -7.9 °F 30.77 in WNW 1.2 mph   83% 0.00 in 0.0 W/m2
01:37 -3.8 °F -7.7 °F 30.77 in Calm     83% 0.00 in 0.0 W/m2
01:40 -3.4 °F -7.0 °F 30.77 in Calm     84% 0.00 in 0.0 W/m2
01:43 -3.1 °F -6.7 °F 30.78 in Calm     84% 0.00 in 0.0 W/m2
01:45 -3.0 °F -6.6 °F 30.78 in Calm     84% 0.00 in 0.0 W/m2
01:50 -2.8 °F -6.7 °F 30.78 in Calm     83% 0.00 in 0.0 W/m2
01:51 -2.8 °F -6.7 °F 30.78 in Calm     83% 0.00 in 0.0 W/m2
01:54 -2.7 °F -6.6 °F 30.79 in Calm     83% 0.00 in 0.0 W/m2
01:56 -2.6 °F -6.5 °F 30.79 in Calm     83% 0.00 in 0.0 W/m2
02:01 -2.2 °F -5.8 °F 30.79 in WNW 1.2 mph   84% 0.00 in 0.0 W/m2
02:03 -2.1 °F -5.7 °F 30.79 in WNW 1.2 mph 1.2 mph 84% 0.00 in 0.0 W/m2
02:08 -1.5 °F -5.2 °F 30.79 in WNW 1.2 mph 1.2 mph 84% 0.00 in 0.0 W/m2
02:09 -1.4 °F -5.1 °F 30.79 in WNW 1.2 mph   84% 0.00 in 0.0 W/m2
02:13 -1.2 °F -4.9 °F 30.79 in Calm     84% 0.00 in 0.0 W/m2
02:15 -1.0 °F -4.7 °F 30.79 in Calm     84% 0.00 in 0.0 W/m2
02:18 -0.9 °F -4.6 °F 30.79 in Calm     84% 0.00 in 0.0 W/m2
02:20 -0.7 °F -4.4 °F 30.80 in Calm     84% 0.00 in 0.0 W/m2
02:24 -0.4 °F -4.1 °F 30.80 in WNW 1.0 mph 1.0 mph 84% 0.00 in 0.0 W/m2
02:26 -0.3 °F -4.0 °F 30.80 in WNW 1.2 mph 1.2 mph 84% 0.00 in 0.0 W/m2
02:29 -0.1 °F -3.8 °F 30.80 in Calm     84% 0.00 in 0.0 W/m2
02:32 0.0 °F -3.9 °F 30.80 in WNW 1.2 mph 1.2 mph 83% 0.00 in 0.0 W/m2
02:37 0.3 °F -3.6 °F 30.80 in WNW 2.3 mph 2.3 mph 83% 0.00 in 0.0 W/m2
02:42 0.5 °F -3.4 °F 30.80 in WNW 1.2 mph 1.2 mph 83% 0.00 in 0.0 W/m2
02:47 0.6 °F -3.6 °F 30.80 in WNW 1.2 mph   82% 0.00 in 0.0 W/m2
02:49 0.6 °F -3.6 °F 30.80 in WNW 1.2 mph 1.2 mph 82% 0.00 in 0.0 W/m2
02:51 0.6 °F -3.6 °F 30.80 in WNW 2.3 mph 2.3 mph 82% 0.00 in 0.0 W/m2
02:54 0.6 °F -3.6 °F 30.80 in WNW 2.3 mph 2.3 mph 82% 0.00 in 0.0 W/m2
02:59 0.6 °F -3.9 °F 30.80 in Calm     81% 0.00 in 0.0 W/m2
03:02 0.6 °F -3.9 °F 30.80 in Calm     81% 0.00 in 0.0 W/m2
03:05 0.6 °F -3.9 °F 30.80 in Calm     81% 0.00 in 0.0 W/m2
03:09 0.5 °F -4.0 °F 30.80 in Calm     81% 0.00 in 0.0 W/m2
03:14 0.5 °F -4.0 °F 30.79 in Calm     81% 0.00 in 0.0 W/m2
03:19 0.6 °F -3.9 °F 30.80 in Calm     81% 0.00 in 0.0 W/m2
03:20 0.6 °F -3.9 °F 30.80 in Calm     81% 0.00 in 0.0 W/m2
03:25 0.6 °F -3.9 °F 30.80 in Calm     81% 0.00 in 0.0 W/m2
03:26 0.6 °F -3.9 °F 30.80 in Calm     81% 0.00 in 0.0 W/m2
03:30 0.7 °F -3.8 °F 30.80 in Calm     81% 0.00 in 0.0 W/m2
03:35 0.7 °F -3.8 °F 30.79 in Calm     81% 0.00 in 0.0 W/m2
03:36 0.8 °F -3.7 °F 30.79 in Calm     81% 0.00 in 0.0 W/m2
03:37 0.8 °F -3.7 °F 30.79 in Calm     81% 0.00 in 0.0 W/m2
03:41 0.8 °F -3.7 °F 30.79 in Calm     81% 0.00 in 0.0 W/m2
03:44 0.6 °F -4.1 °F 30.79 in Calm     80% 0.00 in 0.0 W/m2
03:46 0.5 °F -4.2 °F 30.78 in Calm     80% 0.00 in 0.0 W/m2
03:51 0.2 °F -4.5 °F 30.78 in Calm     80% 0.00 in 0.0 W/m2
03:57 -0.1 °F -4.8 °F 30.78 in Calm     80% 0.00 in 0.0 W/m2
03:58 -0.2 °F -4.9 °F 30.78 in Calm     80% 0.00 in 0.0 W/m2
04:03 -0.6 °F -5.3 °F 30.78 in Calm     80% 0.00 in 0.0 W/m2
04:05 -0.7 °F -5.4 °F 30.78 in Calm     80% 0.00 in 0.0 W/m2
04:09 -0.7 °F -5.4 °F 30.77 in Calm     80% 0.00 in 0.0 W/m2
04:11 -0.7 °F -5.1 °F 30.77 in Calm     81% 0.00 in 0.0 W/m2
04:16 -0.5 °F -4.7 °F 30.76 in Calm     82% 0.00 in 0.0 W/m2
04:21 -0.3 °F -4.5 °F 30.77 in Calm     82% 0.00 in 0.0 W/m2
04:26 -0.2 °F -4.4 °F 30.77 in Calm     82% 0.00 in 0.0 W/m2
04:27 -0.2 °F -4.4 °F 30.77 in Calm     82% 0.00 in 0.0 W/m2
04:28 -0.2 °F -4.4 °F 30.77 in Calm     82% 0.00 in 0.0 W/m2
04:33 0.0 °F -4.2 °F 30.77 in Calm     82% 0.00 in 0.0 W/m2
04:34 0.0 °F -4.2 °F 30.77 in Calm     82% 0.00 in 0.0 W/m2
04:38 0.1 °F -4.1 °F 30.77 in Calm     82% 0.00 in 0.0 W/m2
04:39 0.1 °F -4.1 °F 30.77 in Calm     82% 0.00 in 0.0 W/m2
04:44 0.2 °F -3.7 °F 30.76 in Calm     83% 0.00 in 0.0 W/m2
04:46 0.4 °F -3.5 °F 30.76 in Calm     83% 0.00 in 0.0 W/m2
04:51 0.6 °F -3.3 °F 30.76 in Calm     83% 0.00 in 0.0 W/m2
04:53 0.7 °F -3.3 °F 30.75 in Calm     83% 0.00 in 0.0 W/m2
04:56 0.9 °F -3.1 °F 30.75 in Calm     83% 0.00 in 0.0 W/m2
04:59 1.0 °F -3.0 °F 30.75 in Calm     83% 0.00 in 0.0 W/m2
05:04 1.2 °F -3.0 °F 30.75 in Calm     82% 0.00 in 0.0 W/m2
05:07 1.3 °F -2.9 °F 30.76 in Calm     82% 0.00 in 0.0 W/m2
05:10 1.3 °F -2.9 °F 30.76 in Calm     82% 0.00 in 0.0 W/m2
05:13 1.3 °F -3.2 °F 30.77 in Calm     81% 0.00 in 0.0 W/m2
05:18 1.4 °F -3.1 °F 30.76 in Calm     81% 0.00 in 0.0 W/m2
05:21 1.5 °F -3.0 °F 30.76 in Calm     81% 0.00 in 0.0 W/m2
05:26 1.7 °F -2.8 °F 30.76 in Calm     81% 0.00 in 0.0 W/m2
05:31 1.9 °F -2.6 °F 30.76 in Calm     81% 0.00 in 0.0 W/m2
05:36 2.1 °F -2.4 °F 30.75 in Calm     81% 0.00 in 0.0 W/m2
05:41 2.2 °F -2.6 °F 30.75 in Calm     80% 0.00 in 0.0 W/m2
05:42 2.1 °F -2.7 °F 30.75 in Calm     80% 0.00 in 0.0 W/m2
05:47 2.1 °F -2.7 °F 30.74 in Calm     80% 0.00 in 0.0 W/m2
05:52 2.0 °F -2.8 °F 30.73 in East 2.3 mph 2.3 mph 80% 0.00 in 0.0 W/m2
05:53 2.0 °F -2.5 °F 30.73 in East 3.5 mph 3.5 mph 81% 0.00 in 0.0 W/m2
05:58 1.9 °F -2.6 °F 30.73 in East 3.5 mph 3.5 mph 81% 0.00 in 0.0 W/m2
05:59 1.9 °F -2.6 °F 30.73 in ESE 3.5 mph 3.5 mph 81% 0.00 in 0.0 W/m2
06:02 1.9 °F -2.6 °F 30.73 in East 1.2 mph 1.2 mph 81% 0.00 in 0.0 W/m2
06:05 1.9 °F -2.3 °F 30.74 in East 1.2 mph 1.2 mph 82% 0.00 in 0.0 W/m2
06:08 1.9 °F -2.3 °F 30.73 in East 1.2 mph 1.2 mph 82% 0.00 in 0.0 W/m2
06:10 1.9 °F -2.3 °F 30.73 in East 2.0 mph 2.0 mph 82% 0.00 in 0.0 W/m2
06:15 2.0 °F -2.2 °F 30.73 in East 1.2 mph 1.2 mph 82% 0.00 in 0.0 W/m2
06:16 2.0 °F -2.2 °F 30.73 in East 1.2 mph 1.2 mph 82% 0.00 in 0.0 W/m2
06:21 2.0 °F -2.2 °F 30.73 in East 2.3 mph 2.3 mph 82% 0.00 in 0.0 W/m2
06:22 2.0 °F -2.2 °F 30.73 in East 2.3 mph 2.3 mph 82% 0.00 in 0.0 W/m2
06:27 2.0 °F -2.2 °F 30.73 in ESE 2.3 mph 2.3 mph 82% 0.00 in 0.0 W/m2
06:30 1.9 °F -2.3 °F 30.73 in East 3.5 mph 3.5 mph 82% 0.00 in 0.0 W/m2
06:32 1.8 °F -2.4 °F 30.73 in East 3.5 mph 3.5 mph 82% 0.00 in 0.0 W/m2
06:36 1.7 °F -2.5 °F 30.72 in East 1.2 mph 1.2 mph 82% 0.00 in 0.0 W/m2
06:39 1.8 °F -2.4 °F 30.72 in East 3.5 mph 3.5 mph 82% 0.00 in 0.0 W/m2
06:41 1.8 °F -2.4 °F 30.71 in East 3.5 mph 3.5 mph 82% 0.00 in 0.0 W/m2
06:46 1.8 °F -2.4 °F 30.71 in East 3.5 mph 3.5 mph 82% 0.00 in 0.0 W/m2
06:49 1.9 °F -2.3 °F 30.72 in East 2.3 mph 2.3 mph 82% 0.00 in 0.0 W/m2
06:52 1.9 °F -2.3 °F 30.72 in East 3.5 mph 3.5 mph 82% 0.00 in 0.0 W/m2
06:57 2.0 °F -2.0 °F 30.72 in ESE 3.5 mph 3.5 mph 83% 0.00 in 0.0 W/m2
06:59 2.1 °F -1.9 °F 30.72 in ESE 2.3 mph 2.3 mph 83% 0.00 in 0.0 W/m2
07:04 2.2 °F -1.8 °F 30.72 in ESE 1.2 mph 1.2 mph 83% 0.00 in 0.0 W/m2
07:08 2.4 °F -1.6 °F 30.72 in SE 2.3 mph 2.3 mph 83% 0.00 in 0.0 W/m2
07:09 2.4 °F -1.6 °F 30.72 in SE 2.3 mph 2.3 mph 83% 0.00 in 0.0 W/m2
07:14 2.5 °F -1.5 °F 30.72 in SE 1.2 mph 1.2 mph 83% 0.00 in 0.0 W/m2
07:19 2.6 °F -1.4 °F 30.71 in ESE 2.3 mph 2.3 mph 83% 0.00 in 0.0 W/m2
07:20 2.6 °F -1.4 °F 30.71 in ESE 2.3 mph 2.3 mph 83% 0.00 in 0.0 W/m2
07:25 2.7 °F -1.3 °F 30.72 in ESE 2.3 mph 2.3 mph 83% 0.00 in 5.0 W/m2
07:29 2.8 °F -1.4 °F 30.72 in ESE 1.2 mph   82% 0.00 in 7.0 W/m2
07:33 2.9 °F -1.1 °F 30.72 in ESE 1.2 mph 1.2 mph 83% 0.00 in 11.0 W/m2
07:34 2.9 °F -1.1 °F 30.72 in ESE 1.2 mph 1.2 mph 83% 0.00 in 12.0 W/m2
07:35 2.9 °F -1.3 °F 30.72 in Calm     82% 0.00 in 12.0 W/m2
07:40 3.1 °F -1.2 °F 30.72 in SE 2.3 mph 2.3 mph 82% 0.00 in 16.0 W/m2
07:41 3.1 °F -1.2 °F 30.72 in SE 3.5 mph 3.5 mph 82% 0.00 in 18.0 W/m2
07:45 3.2 °F -1.1 °F 30.72 in SSE 2.3 mph   82% 0.00 in 12.0 W/m2
07:50 3.3 °F -1.2 °F 30.72 in SSE 1.2 mph 1.2 mph 81% 0.00 in 12.0 W/m2
07:55 3.4 °F -1.1 °F 30.72 in Calm     81% 0.00 in 14.0 W/m2
07:57 3.4 °F -1.1 °F 30.72 in SSE 2.0 mph 2.0 mph 81% 0.00 in 14.0 W/m2
08:00 3.5 °F -1.0 °F 30.72 in SSE 2.3 mph   81% 0.00 in 19.0 W/m2
08:05 3.6 °F -0.9 °F 30.72 in Calm     81% 0.00 in 33.0 W/m2
08:09 3.7 °F -0.8 °F 30.72 in Calm     81% 0.00 in 40.0 W/m2
08:13 3.8 °F -0.7 °F 30.72 in Calm     81% 0.00 in 49.0 W/m2
08:14 3.9 °F -0.6 °F 30.72 in Calm     81% 0.00 in 56.0 W/m2
08:15 3.9 °F -0.6 °F 30.72 in Calm     81% 0.00 in 60.0 W/m2
08:18 4.0 °F -0.8 °F 30.72 in Calm     80% 0.00 in 65.0 W/m2
08:22 4.3 °F -0.5 °F 30.71 in SE 2.0 mph 2.0 mph 80% 0.00 in 67.0 W/m2
08:24 4.4 °F -0.4 °F 30.71 in SE 2.3 mph 2.3 mph 80% 0.00 in 95.0 W/m2
08:29 4.6 °F -0.2 °F 30.71 in SE 2.3 mph 2.3 mph 80% 0.00 in 90.0 W/m2
08:30 4.6 °F -0.2 °F 30.71 in SE 2.3 mph 2.3 mph 80% 0.00 in 84.0 W/m2
08:33 4.7 °F -0.1 °F 30.70 in SE 2.3 mph 2.3 mph 80% 0.00 in 62.0 W/m2
08:36 4.8 °F -0.3 °F 30.70 in SSE 3.5 mph 3.5 mph 79% 0.00 in 60.0 W/m2
08:41 4.9 °F -0.2 °F 30.70 in SE 3.5 mph 3.5 mph 79% 0.00 in 77.0 W/m2
08:45 5.0 °F -0.1 °F 30.70 in SE 2.3 mph 2.3 mph 79% 0.00 in 88.0 W/m2
08:50 5.2 °F -0.2 °F 30.71 in SSE 2.3 mph 2.3 mph 78% 0.00 in 91.0 W/m2
08:51 5.2 °F -0.2 °F 30.71 in SSE 2.3 mph 2.3 mph 78% 0.00 in 95.0 W/m2
08:53 5.3 °F -0.1 °F 30.71 in SSE 2.3 mph 2.3 mph 78% 0.00 in 100.0 W/m2
08:56 5.4 °F 0.0 °F 30.71 in SSE 1.2 mph 1.2 mph 78% 0.00 in 102.0 W/m2
09:01 5.5 °F 0.1 °F 30.71 in Calm     78% 0.00 in 105.0 W/m2
09:05 5.8 °F 0.4 °F 30.71 in SSE 2.0 mph 2.0 mph 78% 0.00 in 116.0 W/m2
09:07 5.8 °F 0.1 °F 30.72 in SE 3.5 mph 3.5 mph 77% 0.00 in 114.0 W/m2
09:12 6.0 °F 0.3 °F 30.72 in Calm     77% 0.00 in 118.0 W/m2
09:14 6.0 °F 0.1 °F 30.72 in Calm     76% 0.00 in 128.0 W/m2
09:19 6.2 °F 0.3 °F 30.72 in Calm   0.2 mph 76% 0.00 in 160.0 W/m2
09:20 6.2 °F 0.3 °F 30.72 in SSE 2.0 mph 2.0 mph 76% 0.00 in 162.0 W/m2
09:21 6.3 °F 0.3 °F 30.72 in SSE 2.3 mph 2.3 mph 76% 0.00 in 158.0 W/m2
09:26 6.5 °F 0.5 °F 30.71 in SE 2.3 mph 2.3 mph 76% 0.00 in 174.0 W/m2
09:29 6.7 °F 0.7 °F 30.71 in SSE 1.0 mph   76% 0.00 in 206.0 W/m2
09:31 6.9 °F 0.9 °F 30.72 in Calm     76% 0.00 in 202.0 W/m2
09:36 7.3 °F 1.3 °F 30.71 in Calm   0.2 mph 76% 0.00 in 216.0 W/m2
09:38 7.4 °F 1.4 °F 30.71 in South 1.2 mph   76% 0.00 in 216.0 W/m2
09:43 7.7 °F 1.4 °F 30.71 in SSE 4.6 mph 4.6 mph 75% 0.00 in 200.0 W/m2
09:45 7.7 °F 1.4 °F 30.71 in SSE 4.0 mph 4.0 mph 75% 0.00 in 199.0 W/m2
09:50 7.7 °F 1.4 °F 30.70 in SSE 3.5 mph 3.5 mph 75% 0.00 in 204.0 W/m2
09:52 7.7 °F 1.4 °F 30.70 in South 4.6 mph 4.6 mph 75% 0.00 in 204.0 W/m2
09:57 7.8 °F 1.5 °F 30.70 in SSE 5.8 mph 5.8 mph 75% 0.00 in 206.0 W/m2
09:59 8.0 °F 2.0 °F 30.70 in SSE 4.6 mph 4.6 mph 76% 0.00 in 207.0 W/m2
10:04 8.3 °F 2.3 °F 30.70 in SSE 8.0 mph 8.0 mph 76% 0.00 in 214.0 W/m2
10:08 8.3 °F 2.0 °F 30.71 in SSE 4.6 mph 4.6 mph 75% 0.00 in 141.0 W/m2
10:10 8.5 °F 2.2 °F 30.71 in SSE 6.0 mph 6.0 mph 75% 0.00 in 200.0 W/m2
10:15 8.5 °F 2.2 °F 30.70 in SE 9.2 mph 9.2 mph 75% 0.00 in 207.0 W/m2
10:19 8.6 °F 2.3 °F 30.70 in SSE 6.0 mph 6.0 mph 75% 0.00 in 211.0 W/m2
10:20 8.6 °F 2.3 °F 30.70 in SSE 6.9 mph 6.9 mph 75% 0.00 in 214.0 W/m2
10:25 8.8 °F 2.5 °F 30.70 in SSE 9.2 mph 9.2 mph 75% 0.00 in 221.0 W/m2
10:27 8.9 °F 2.6 °F 30.70 in SSE 8.1 mph 8.1 mph 75% 0.00 in 225.0 W/m2
10:30 8.9 °F 2.6 °F 30.69 in SE 6.0 mph 6.0 mph 75% 0.00 in 225.0 W/m2
10:33 9.0 °F 2.7 °F 30.69 in SE 6.9 mph 6.9 mph 75% 0.00 in 230.0 W/m2
10:34 9.0 °F 2.7 °F 30.69 in SE 8.1 mph 8.1 mph 75% 0.00 in 232.0 W/m2
10:39 9.2 °F 2.9 °F 30.69 in SSE 6.9 mph 6.9 mph 75% 0.00 in 241.0 W/m2
10:44 9.3 °F 3.0 °F 30.68 in SE 9.2 mph 9.2 mph 75% 0.00 in 253.0 W/m2
10:45 9.2 °F 2.9 °F 30.68 in SE 9.2 mph 9.2 mph 75% 0.00 in 253.0 W/m2
10:50 9.5 °F 3.5 °F 30.67 in SE 10.4 mph 10.4 mph 76% 0.00 in 265.0 W/m2
10:51 9.5 °F 3.2 °F 30.67 in SSE 6.9 mph 6.9 mph 75% 0.00 in 272.0 W/m2
10:55 9.8 °F 3.5 °F 30.67 in SE 10.4 mph 10.4 mph 75% 0.00 in 274.0 W/m2
10:56 9.8 °F 3.5 °F 30.67 in SE 8.1 mph 8.1 mph 75% 0.00 in 272.0 W/m2
11:01 9.9 °F 3.6 °F 30.67 in SSE 10.4 mph 10.4 mph 75% 0.00 in 262.0 W/m2
11:02 9.9 °F 3.6 °F 30.67 in SSE 10.4 mph 10.4 mph 75% 0.00 in 262.0 W/m2
11:07 9.8 °F 3.5 °F 30.67 in SE 10.4 mph 10.4 mph 75% 0.00 in 260.0 W/m2
11:09 9.8 °F 3.5 °F 30.67 in SSE 10.4 mph 10.4 mph 75% 0.00 in 260.0 W/m2
11:14 9.9 °F 3.6 °F 30.67 in SE 8.1 mph 8.1 mph 75% 0.00 in 265.0 W/m2
11:15 9.9 °F 3.6 °F 30.67 in SSE 9.2 mph 9.2 mph 75% 0.00 in 267.0 W/m2
11:19 10.0 °F 3.9 °F 30.67 in SE 8.1 mph 8.1 mph 76% 0.00 in 269.0 W/m2
11:24 10.3 °F 4.2 °F 30.67 in SE 5.8 mph 5.8 mph 76% 0.00 in 265.0 W/m2
11:25 10.3 °F 3.9 °F 30.66 in SE 7.0 mph 7.0 mph 75% 0.00 in 264.0 W/m2
11:30 10.6 °F 4.2 °F 30.66 in SE 5.8 mph 5.8 mph 75% 0.00 in 285.0 W/m2
11:35 10.8 °F 4.4 °F 30.65 in SE 5.0 mph 5.0 mph 75% 0.00 in 295.0 W/m2
11:37 10.9 °F 4.5 °F 30.65 in SE 5.8 mph 5.8 mph 75% 0.00 in 302.0 W/m2
11:42 11.0 °F 4.3 °F 30.65 in SE 6.9 mph 6.9 mph 74% 0.00 in 269.0 W/m2
11:47 11.0 °F 4.3 °F 30.65 in SE 6.9 mph 6.9 mph 74% 0.00 in 239.0 W/m2
11:48 11.0 °F 4.3 °F 30.65 in SE 8.1 mph 8.1 mph 74% 0.00 in 244.0 W/m2
11:53 11.2 °F 4.8 °F 30.65 in SE 8.1 mph 8.1 mph 75% 0.00 in 241.0 W/m2
11:57 11.2 °F 4.8 °F 30.64 in SSE 5.8 mph 5.8 mph 75% 0.00 in 244.0 W/m2
11:59 11.2 °F 4.5 °F 30.64 in SE 8.0 mph 8.0 mph 74% 0.00 in 253.0 W/m2
12:04 11.3 °F 4.6 °F 30.64 in SSE 5.0 mph 5.0 mph 74% 0.00 in 255.0 W/m2
12:09 11.3 °F 4.6 °F 30.63 in SE 6.9 mph 6.9 mph 74% 0.00 in 236.0 W/m2
12:10 11.4 °F 4.7 °F 30.63 in SE 5.8 mph 5.8 mph 74% 0.00 in 239.0 W/m2
12:15 11.7 °F 5.0 °F 30.63 in SSE 5.0 mph 5.0 mph 74% 0.00 in 237.0 W/m2
12:16 11.7 °F 4.7 °F 30.63 in SSE 6.9 mph 6.9 mph 73% 0.00 in 237.0 W/m2
12:21 11.8 °F 4.8 °F 30.63 in SSE 5.8 mph 5.8 mph 73% 0.00 in 223.0 W/m2
12:22 11.9 °F 4.9 °F 30.63 in SSE 4.6 mph 4.6 mph 73% 0.00 in 221.0 W/m2
12:27 11.9 °F 4.6 °F 30.63 in SSE 6.0 mph 6.0 mph 72% 0.00 in 214.0 W/m2
12:29 11.8 °F 4.5 °F 30.62 in SSE 5.8 mph 5.8 mph 72% 0.00 in 213.0 W/m2
12:34 11.8 °F 4.8 °F 30.62 in SE 9.2 mph 9.2 mph 73% 0.00 in 207.0 W/m2
12:35 11.8 °F 4.8 °F 30.62 in SSE 9.2 mph 9.2 mph 73% 0.00 in 207.0 W/m2
12:40 11.9 °F 4.6 °F 30.62 in SE 6.9 mph 6.9 mph 72% 0.00 in 214.0 W/m2
12:44 12.0 °F 5.0 °F 30.61 in SE 6.9 mph 6.9 mph 73% 0.00 in 213.0 W/m2
12:49 12.1 °F 4.8 °F 30.61 in SSE 5.8 mph 5.8 mph 72% 0.00 in 197.0 W/m2
12:54 12.1 °F 4.8 °F 30.60 in SSE 8.1 mph 8.1 mph 72% 0.00 in 204.0 W/m2
12:55 12.1 °F 4.8 °F 30.60 in SSE 6.9 mph 6.9 mph 72% 0.00 in 209.0 W/m2
13:00 12.2 °F 5.2 °F 30.60 in SSE 8.1 mph 8.1 mph 73% 0.00 in 204.0 W/m2
13:05 12.3 °F 5.0 °F 30.59 in SE 8.1 mph 8.1 mph 72% 0.00 in 206.0 W/m2
13:06 12.4 °F 5.1 °F 30.59 in SSE 8.1 mph 8.1 mph 72% 0.00 in 221.0 W/m2
13:07 12.4 °F 5.1 °F 30.59 in SSE 6.9 mph 6.9 mph 72% 0.00 in 229.0 W/m2
13:11 12.5 °F 5.2 °F 30.58 in SE 9.2 mph 9.2 mph 72% 0.00 in 223.0 W/m2
13:12 12.5 °F 5.2 °F 30.58 in SSE 10.4 mph 10.4 mph 72% 0.00 in 220.0 W/m2
13:17 12.6 °F 5.3 °F 30.57 in SE 6.9 mph 6.9 mph 72% 0.00 in 207.0 W/m2
13:22 12.7 °F 5.1 °F 30.57 in SE 8.1 mph 8.1 mph 71% 0.00 in 192.0 W/m2
13:23 12.7 °F 5.1 °F 30.57 in SE 8.1 mph 8.1 mph 71% 0.00 in 193.0 W/m2
13:25 12.7 °F 5.1 °F 30.57 in SSE 9.2 mph 9.2 mph 71% 0.00 in 197.0 W/m2
13:29 12.7 °F 5.1 °F 30.57 in SE 9.2 mph 9.2 mph 71% 0.00 in 197.0 W/m2
13:33 12.7 °F 5.1 °F 30.57 in SE 6.9 mph 6.9 mph 71% 0.00 in 220.0 W/m2
13:35 12.7 °F 5.1 °F 30.57 in SE 5.8 mph 5.8 mph 71% 0.00 in 221.0 W/m2
13:40 12.9 °F 5.3 °F 30.56 in SSE 6.9 mph 6.9 mph 71% 0.00 in 225.0 W/m2
13:45 13.0 °F 5.0 °F 30.57 in SSE 4.6 mph 4.6 mph 70% 0.00 in 199.0 W/m2
13:47 13.0 °F 5.0 °F 30.56 in SSE 5.8 mph 5.8 mph 70% 0.00 in 185.0 W/m2
13:51 12.9 °F 5.0 °F 30.56 in SSE 3.5 mph 3.5 mph 70% 0.00 in 195.0 W/m2
13:55 12.9 °F 5.0 °F 30.56 in SSE 3.5 mph 3.5 mph 70% 0.00 in 185.0 W/m2
13:57 13.0 °F 5.0 °F 30.57 in SE 3.5 mph 3.5 mph 70% 0.00 in 183.0 W/m2
14:02 13.0 °F 5.0 °F 30.56 in SSE 3.5 mph 3.5 mph 70% 0.00 in 172.0 W/m2
14:03 12.9 °F 5.0 °F 30.56 in SSE 2.3 mph 2.3 mph 70% 0.00 in 179.0 W/m2
14:04 12.9 °F 5.0 °F 30.56 in SE 3.5 mph 3.5 mph 70% 0.00 in 181.0 W/m2
14:09 13.0 °F 5.4 °F 30.56 in South 2.3 mph 2.3 mph 71% 0.00 in 163.0 W/m2
14:11 13.0 °F 5.0 °F 30.56 in SSE 5.0 mph 5.0 mph 70% 0.00 in 149.0 W/m2
14:16 12.9 °F 5.3 °F 30.56 in SSE 4.6 mph 4.6 mph 71% 0.00 in 132.0 W/m2
14:18 12.8 °F 4.9 °F 30.56 in South 2.3 mph 2.3 mph 70% 0.00 in 134.0 W/m2
14:19 12.8 °F 4.9 °F 30.56 in SSW 3.5 mph 3.5 mph 70% 0.00 in 135.0 W/m2
14:24 12.6 °F 4.7 °F 30.57 in South 3.5 mph 3.5 mph 70% 0.00 in 130.0 W/m2
14:26 12.5 °F 4.3 °F 30.56 in South 3.5 mph 3.5 mph 69% 0.00 in 127.0 W/m2
14:29 12.5 °F 4.6 °F 30.56 in SSE 3.5 mph 3.5 mph 70% 0.00 in 120.0 W/m2
14:30 12.6 °F 4.7 °F 30.56 in SSE 3.5 mph 3.5 mph 70% 0.00 in 120.0 W/m2
14:31 12.6 °F 4.7 °F 30.56 in South 4.6 mph 4.6 mph 70% 0.00 in 118.0 W/m2
14:36 12.5 °F 4.3 °F 30.56 in SSE 3.5 mph 3.5 mph 69% 0.00 in 114.0 W/m2
14:37 12.5 °F 4.3 °F 30.56 in SSE 5.8 mph 5.8 mph 69% 0.00 in 111.0 W/m2
14:42 12.4 °F 4.2 °F 30.56 in South 3.5 mph 3.5 mph 69% 0.00 in 97.0 W/m2
14:44 12.3 °F 4.1 °F 30.56 in South 2.3 mph 2.3 mph 69% 0.00 in 95.0 W/m2
14:45 12.4 °F 4.5 °F 30.56 in North 2.3 mph 2.3 mph 70% 0.00 in 98.0 W/m2
14:49 12.3 °F 4.4 °F 30.56 in South 2.3 mph 2.3 mph 70% 0.00 in 91.0 W/m2
14:54 12.3 °F 4.7 °F 30.56 in SSE 3.5 mph 3.5 mph 71% 0.00 in 83.0 W/m2
14:56 12.3 °F 4.7 °F 30.55 in SSE 4.6 mph 4.6 mph 71% 0.00 in 72.0 W/m2
15:01 12.4 °F 5.1 °F 30.56 in SSE 2.3 mph 2.3 mph 72% 0.00 in 65.0 W/m2
15:02 12.4 °F 5.1 °F 30.56 in SSE 2.3 mph 2.3 mph 72% 0.00 in 65.0 W/m2
15:06 12.4 °F 5.4 °F 30.55 in SSE 2.0 mph 2.0 mph 73% 0.00 in 76.0 W/m2
15:11 12.4 °F 5.4 °F 30.56 in SSE 5.8 mph 5.8 mph 73% 0.00 in 70.0 W/m2
15:12 12.3 °F 5.3 °F 30.56 in SSE 5.8 mph 5.8 mph 73% 0.00 in 70.0 W/m2
15:17 12.4 °F 5.4 °F 30.56 in SSE 2.3 mph 2.3 mph 73% 0.00 in 63.0 W/m2
15:22 12.3 °F 5.6 °F 30.55 in SSE 3.5 mph 3.5 mph 74% 0.00 in 58.0 W/m2
15:24 12.3 °F 5.3 °F 30.55 in SSE 4.6 mph 4.6 mph 73% 0.00 in 51.0 W/m2
15:27 12.3 °F 5.3 °F 30.55 in SSE 5.8 mph 5.8 mph 73% 0.00 in 49.0 W/m2
15:30 12.3 °F 5.6 °F 30.55 in SSE 3.5 mph 3.5 mph 74% 0.00 in 47.0 W/m2
15:35 12.2 °F 5.5 °F 30.55 in SSE 4.6 mph 4.6 mph 74% 0.00 in 58.0 W/m2
15:38 12.1 °F 5.4 °F 30.54 in SSE 4.0 mph 4.0 mph 74% 0.00 in 56.0 W/m2
15:43 12.1 °F 5.7 °F 30.54 in SSE 3.5 mph 3.5 mph 75% 0.00 in 37.0 W/m2
15:48 11.9 °F 5.8 °F 30.55 in SE 2.3 mph 2.3 mph 76% 0.00 in 28.0 W/m2
15:49 11.9 °F 5.8 °F 30.55 in SE 1.0 mph 1.0 mph 76% 0.00 in 28.0 W/m2
15:50 11.9 °F 5.8 °F 30.55 in SE 1.2 mph 1.2 mph 76% 0.00 in 28.0 W/m2
15:55 11.9 °F 6.1 °F 30.55 in SE 2.3 mph 2.3 mph 77% 0.00 in 28.0 W/m2
15:56 11.9 °F 6.1 °F 30.55 in SE 1.2 mph 1.2 mph 77% 0.00 in 28.0 W/m2
16:01 11.8 °F 6.3 °F 30.55 in SE 3.5 mph 3.5 mph 78% 0.00 in 19.0 W/m2
16:02 11.8 °F 6.3 °F 30.54 in SE 3.5 mph 3.5 mph 78% 0.00 in 19.0 W/m2
16:06 11.7 °F 6.2 °F 30.55 in SE 2.3 mph   78% 0.00 in 16.0 W/m2
16:07 11.7 °F 6.2 °F 30.55 in SE 1.2 mph 1.2 mph 78% 0.00 in 14.0 W/m2
16:14 11.8 °F 6.3 °F 30.55 in SSE 3.5 mph 3.5 mph 78% 0.00 in 9.0 W/m2
16:17 11.8 °F 6.3 °F 30.55 in SSE 1.2 mph 1.2 mph 78% 0.00 in 9.0 W/m2
16:20 11.8 °F 6.3 °F 30.55 in SSE 2.3 mph 2.3 mph 78% 0.00 in 5.0 W/m2
16:30 11.7 °F 6.2 °F 30.55 in Calm     78% 0.00 in 0.0 W/m2
16:35 11.7 °F 6.4 °F 30.55 in SSE 2.3 mph 2.3 mph 79% 0.00 in 0.0 W/m2
16:40 11.7 °F 6.7 °F 30.55 in SSE 2.3 mph 2.3 mph 80% 0.00 in 0.0 W/m2
16:41 11.7 °F 6.7 °F 30.55 in SSE 2.3 mph 2.3 mph 80% 0.00 in 0.0 W/m2
16:44 11.7 °F 6.7 °F 30.55 in Calm   0.1 mph 80% 0.00 in 0.0 W/m2
16:47 11.7 °F 6.7 °F 30.55 in Calm   0.1 mph 80% 0.00 in 0.0 W/m2
16:52 11.7 °F 6.7 °F 30.55 in South 2.3 mph 2.3 mph 80% 0.00 in 0.0 W/m2
16:57 11.7 °F 6.4 °F 30.54 in South 3.5 mph 3.5 mph 79% 0.00 in 0.0 W/m2
16:59 11.7 °F 6.4 °F 30.54 in South 3.5 mph 3.5 mph 79% 0.00 in 0.0 W/m2
17:04 11.7 °F 6.4 °F 30.54 in South 2.3 mph 2.3 mph 79% 0.00 in 0.0 W/m2
17:06 11.7 °F 6.4 °F 30.54 in South 1.2 mph 1.2 mph 79% 0.00 in 0.0 W/m2
17:11 11.7 °F 6.4 °F 30.53 in South 3.5 mph 3.5 mph 79% 0.00 in 0.0 W/m2
17:17 11.6 °F 6.6 °F 30.53 in SSE 3.5 mph 3.5 mph 80% 0.00 in 0.0 W/m2
17:19 11.6 °F 6.6 °F 30.53 in SSE 3.5 mph 3.5 mph 80% 0.00 in 0.0 W/m2
17:24 11.6 °F 6.6 °F 30.53 in SSE 3.5 mph 3.5 mph 80% 0.00 in 0.0 W/m2
17:25 11.6 °F 6.6 °F 30.53 in South 4.6 mph 4.6 mph 80% 0.00 in 0.0 W/m2
17:29 11.6 °F 6.6 °F 30.52 in South 4.6 mph 4.6 mph 80% 0.00 in 0.0 W/m2
17:30 11.6 °F 6.9 °F 30.52 in South 2.3 mph 2.3 mph 81% 0.00 in 0.0 W/m2
17:34 11.6 °F 6.9 °F 30.54 in SSW 1.2 mph   81% 0.00 in 0.0 W/m2
17:36 11.6 °F 6.9 °F 30.54 in South 1.2 mph 1.2 mph 81% 0.00 in 0.0 W/m2
17:39 11.6 °F 6.9 °F 30.53 in South 2.3 mph 2.3 mph 81% 0.00 in 0.0 W/m2
17:44 11.6 °F 7.2 °F 30.53 in South 2.3 mph 2.3 mph 82% 0.00 in 0.0 W/m2
17:45 11.6 °F 7.2 °F 30.53 in South 2.3 mph 2.3 mph 82% 0.00 in 0.0 W/m2
17:50 11.6 °F 7.2 °F 30.53 in South 1.2 mph   82% 0.00 in 0.0 W/m2
17:52 11.7 °F 7.3 °F 30.53 in Calm     82% 0.00 in 0.0 W/m2
17:57 11.6 °F 7.4 °F 30.53 in Calm     83% 0.00 in 0.0 W/m2
18:00 11.7 °F 7.5 °F 30.53 in South 1.2 mph   83% 0.00 in 0.0 W/m2
18:03 11.7 °F 7.5 °F 30.53 in Calm     83% 0.00 in 0.0 W/m2
18:05 11.7 °F 7.5 °F 30.53 in Calm   0.1 mph 83% 0.00 in 0.0 W/m2
18:10 11.7 °F 7.5 °F 30.53 in Calm     83% 0.00 in 0.0 W/m2
18:11 11.7 °F 7.5 °F 30.53 in Calm     83% 0.00 in 0.0 W/m2
18:16 11.7 °F 7.8 °F 30.53 in Calm     84% 0.00 in 0.0 W/m2
18:18 11.7 °F 7.8 °F 30.53 in Calm     84% 0.00 in 0.0 W/m2
18:19 11.6 °F 7.7 °F 30.53 in Calm     84% 0.00 in 0.0 W/m2
18:23 11.6 °F 7.7 °F 30.53 in Calm     84% 0.00 in 0.0 W/m2
18:27 11.6 °F 7.7 °F 30.53 in Calm     84% 0.00 in 0.0 W/m2
18:28 11.7 °F 7.8 °F 30.53 in Calm     84% 0.00 in 0.0 W/m2
18:33 11.7 °F 8.1 °F 30.53 in Calm     85% 0.00 in 0.0 W/m2
18:34 11.7 °F 8.1 °F 30.53 in Calm     85% 0.00 in 0.0 W/m2
18:39 11.7 °F 8.1 °F 30.53 in Calm     85% 0.00 in 0.0 W/m2
18:43 11.7 °F 8.1 °F 30.53 in SSW 1.2 mph   85% 0.00 in 0.0 W/m2
18:46 11.8 °F 8.2 °F 30.53 in Calm     85% 0.00 in 0.0 W/m2
18:51 11.8 °F 8.2 °F 30.53 in SSW 2.3 mph 2.3 mph 85% 0.00 in 0.0 W/m2
18:52 11.8 °F 8.2 °F 30.53 in South 2.3 mph 2.3 mph 85% 0.00 in 0.0 W/m2
18:57 11.8 °F 8.2 °F 30.53 in SSW 1.2 mph   85% 0.00 in 0.0 W/m2
18:59 11.8 °F 8.2 °F 30.53 in Calm   0.1 mph 85% 0.00 in 0.0 W/m2
19:00 11.8 °F 8.2 °F 30.53 in SSW 1.2 mph 1.2 mph 85% 0.00 in 0.0 W/m2
19:05 11.8 °F 8.2 °F 30.52 in SSW 1.2 mph   85% 0.00 in 0.0 W/m2
19:08 11.8 °F 8.2 °F 30.52 in South 1.2 mph 1.2 mph 85% 0.00 in 0.0 W/m2
19:13 11.8 °F 8.2 °F 30.52 in South 1.2 mph 1.2 mph 85% 0.00 in 0.0 W/m2
19:14 11.8 °F 8.2 °F 30.52 in South 1.2 mph   85% 0.00 in 0.0 W/m2
19:19 11.8 °F 8.2 °F 30.51 in SSW 2.3 mph 2.3 mph 85% 0.00 in 0.0 W/m2
19:20 11.8 °F 8.2 °F 30.51 in SSW 2.3 mph 2.3 mph 85% 0.00 in 0.0 W/m2
19:23 11.8 °F 8.2 °F 30.51 in South 1.2 mph 1.2 mph 85% 0.00 in 0.0 W/m2
19:25 11.8 °F 8.2 °F 30.52 in South 1.2 mph 1.2 mph 85% 0.00 in 0.0 W/m2
19:30 11.8 °F 8.2 °F 30.51 in South 2.3 mph   85% 0.00 in 0.0 W/m2
19:35 11.8 °F 8.2 °F 30.51 in South 3.5 mph 3.5 mph 85% 0.00 in 0.0 W/m2
19:36 11.8 °F 8.2 °F 30.51 in South 3.5 mph 3.5 mph 85% 0.00 in 0.0 W/m2
19:41 11.8 °F 8.2 °F 30.50 in South 1.2 mph   85% 0.00 in 0.0 W/m2
19:42 11.8 °F 8.2 °F 30.50 in South 1.2 mph   85% 0.00 in 0.0 W/m2
19:47 11.8 °F 8.4 °F 30.50 in South 1.2 mph 1.2 mph 86% 0.00 in 0.0 W/m2
19:52 11.7 °F 8.3 °F 30.50 in South 1.2 mph 1.2 mph 86% 0.00 in 0.0 W/m2
19:57 11.7 °F 8.3 °F 30.49 in South 1.2 mph   86% 0.00 in 0.0 W/m2
19:59 11.7 °F 8.3 °F 30.49 in South 2.3 mph 2.3 mph 86% 0.00 in 0.0 W/m2
20:03 11.7 °F 8.3 °F 30.48 in South 3.5 mph 3.5 mph 86% 0.00 in 0.0 W/m2
20:08 11.7 °F 8.3 °F 30.48 in South 2.3 mph 2.3 mph 86% 0.00 in 0.0 W/m2
20:09 11.7 °F 8.3 °F 30.48 in South 2.3 mph 2.3 mph 86% 0.00 in 0.0 W/m2
20:11 11.7 °F 8.3 °F 30.47 in South 2.3 mph 2.3 mph 86% 0.00 in 0.0 W/m2
20:14 11.7 °F 8.3 °F 30.47 in South 1.2 mph 1.2 mph 86% 0.00 in 0.0 W/m2
20:19 11.7 °F 8.3 °F 30.46 in South 1.2 mph 1.2 mph 86% 0.00 in 0.0 W/m2
20:20 11.7 °F 8.3 °F 30.46 in SSE 2.3 mph 2.3 mph 86% 0.00 in 0.0 W/m2
20:23 11.7 °F 8.3 °F 30.46 in SSE 2.3 mph 2.3 mph 86% 0.00 in 0.0 W/m2
20:25 11.7 °F 8.3 °F 30.46 in South 3.5 mph 3.5 mph 86% 0.00 in 0.0 W/m2
20:30 11.8 °F 8.4 °F 30.46 in South 2.3 mph 2.3 mph 86% 0.00 in 0.0 W/m2
20:32 11.8 °F 8.4 °F 30.46 in South 3.5 mph 3.5 mph 86% 0.00 in 0.0 W/m2
20:37 11.8 °F 8.4 °F 30.46 in South 1.2 mph 1.2 mph 86% 0.00 in 0.0 W/m2
20:38 11.8 °F 8.4 °F 30.46 in South 1.2 mph 1.2 mph 86% 0.00 in 0.0 W/m2
20:39 11.8 °F 8.4 °F 30.46 in SSW 1.2 mph 1.2 mph 86% 0.00 in 0.0 W/m2
20:43 11.8 °F 8.4 °F 30.46 in Calm     86% 0.00 in 0.0 W/m2
20:48 11.9 °F 8.8 °F 30.46 in SSW 1.2 mph 1.2 mph 87% 0.00 in 0.0 W/m2
20:53 11.9 °F 8.8 °F 30.46 in South 1.2 mph   87% 0.00 in 0.0 W/m2
20:56 12.0 °F 8.9 °F 30.46 in SSW 3.5 mph   87% 0.00 in 0.0 W/m2
21:00 12.1 °F 9.0 °F 30.46 in Calm     87% 0.00 in 0.0 W/m2
21:05 12.2 °F 9.1 °F 30.45 in SSW 1.2 mph 1.2 mph 87% 0.00 in 0.0 W/m2
21:06 12.2 °F 9.1 °F 30.46 in Calm     87% 0.00 in 0.0 W/m2
21:11 12.3 °F 8.9 °F 30.46 in SSW 3.5 mph 3.5 mph 86% 0.00 in 0.0 W/m2
21:12 12.3 °F 8.9 °F 30.46 in SSW 3.5 mph 3.5 mph 86% 0.00 in 0.0 W/m2
21:17 12.3 °F 8.9 °F 30.46 in North 2.0 mph 2.0 mph 86% 0.00 in 0.0 W/m2
21:20 12.3 °F 8.9 °F 30.45 in SSW 2.3 mph 2.3 mph 86% 0.00 in 0.0 W/m2
21:21 12.4 °F 9.0 °F 30.45 in SSW 2.3 mph 2.3 mph 86% 0.00 in 0.0 W/m2
21:26 12.5 °F 9.1 °F 30.45 in SSW 1.2 mph 1.2 mph 86% 0.00 in 0.0 W/m2
21:27 12.5 °F 9.1 °F 30.45 in SSW 1.2 mph 1.2 mph 86% 0.00 in 0.0 W/m2
21:29 12.5 °F 9.1 °F 30.45 in SSW 3.5 mph 3.5 mph 86% 0.00 in 0.0 W/m2
21:34 12.5 °F 9.1 °F 30.45 in SSW 1.2 mph 1.2 mph 86% 0.00 in 0.0 W/m2
21:35 12.6 °F 9.2 °F 30.45 in SSW 2.3 mph 2.3 mph 86% 0.00 in 0.0 W/m2
21:40 12.6 °F 9.2 °F 30.45 in SSW 1.2 mph   86% 0.00 in 0.0 W/m2
21:45 12.6 °F 9.2 °F 30.45 in SSW 4.6 mph 4.6 mph 86% 0.00 in 0.0 W/m2
21:48 12.6 °F 9.2 °F 30.45 in SSW 1.2 mph 1.2 mph 86% 0.00 in 0.0 W/m2
21:51 12.6 °F 9.2 °F 30.45 in Calm   0.1 mph 86% 0.00 in 0.0 W/m2
21:56 12.7 °F 9.3 °F 30.46 in SSW 2.3 mph 2.3 mph 86% 0.00 in 0.0 W/m2
22:01 12.7 °F 9.3 °F 30.45 in SW 1.2 mph   86% 0.00 in 0.0 W/m2
22:02 12.7 °F 9.3 °F 30.45 in SSW 3.5 mph 3.5 mph 86% 0.00 in 0.0 W/m2
22:07 12.8 °F 9.4 °F 30.45 in SSW 1.2 mph 1.2 mph 86% 0.00 in 0.0 W/m2
22:08 12.7 °F 9.3 °F 30.45 in South 4.6 mph 4.6 mph 86% 0.00 in 0.0 W/m2
22:13 12.8 °F 9.4 °F 30.45 in WSW 1.2 mph 1.2 mph 86% 0.00 in 0.0 W/m2
22:14 12.8 °F 9.4 °F 30.45 in SW 4.6 mph 4.6 mph 86% 0.00 in 0.0 W/m2
22:16 12.8 °F 9.4 °F 30.45 in WSW 4.6 mph   86% 0.00 in 0.0 W/m2
22:19 12.8 °F 9.4 °F 30.45 in SW 9.2 mph 9.2 mph 86% 0.00 in 0.0 W/m2
22:24 12.8 °F 9.4 °F 30.45 in Calm     86% 0.00 in 0.0 W/m2
22:29 12.8 °F 9.4 °F 30.45 in WSW 3.5 mph   86% 0.00 in 0.0 W/m2
22:35 12.8 °F 9.4 °F 30.46 in WSW 6.0 mph 6.0 mph 86% 0.00 in 0.0 W/m2
22:36 12.8 °F 9.4 °F 30.45 in SW 9.2 mph 9.2 mph 86% 0.00 in 0.0 W/m2
22:41 12.9 °F 9.5 °F 30.46 in SSW 6.9 mph 6.9 mph 86% 0.00 in 0.0 W/m2
22:43 12.9 °F 9.5 °F 30.46 in Calm     86% 0.00 in 0.0 W/m2
22:46 12.9 °F 9.5 °F 30.46 in WSW 8.1 mph 8.1 mph 86% 0.00 in 0.0 W/m2
22:48 12.9 °F 9.5 °F 30.46 in SW 6.9 mph 6.9 mph 86% 0.00 in 0.0 W/m2
22:53 13.0 °F 9.6 °F 30.46 in WSW 3.5 mph 3.5 mph 86% 0.00 in 0.0 W/m2
22:58 13.0 °F 9.6 °F 30.46 in West 8.0 mph 8.0 mph 86% 0.00 in 0.0 W/m2
22:59 13.0 °F 9.6 °F 30.46 in SW 8.1 mph 8.1 mph 86% 0.00 in 0.0 W/m2
23:00 13.0 °F 9.6 °F 30.46 in WSW 5.8 mph 5.8 mph 86% 0.00 in 0.0 W/m2
23:04 13.1 °F 9.7 °F 30.46 in SW 6.9 mph 6.9 mph 86% 0.00 in 0.0 W/m2
23:09 13.1 °F 9.7 °F 30.46 in WSW 9.2 mph 9.2 mph 86% 0.00 in 0.0 W/m2
23:10 13.1 °F 9.7 °F 30.46 in SW 9.2 mph 9.2 mph 86% 0.00 in 0.0 W/m2
23:15 13.1 °F 9.7 °F 30.46 in WSW 9.2 mph 9.2 mph 86% 0.00 in 0.0 W/m2
23:19 13.2 °F 9.8 °F 30.46 in WSW 9.2 mph 9.2 mph 86% 0.00 in 0.0 W/m2
23:20 13.2 °F 9.8 °F 30.45 in WSW 9.2 mph 9.2 mph 86% 0.00 in 0.0 W/m2
23:25 13.2 °F 9.8 °F 30.45 in WSW 9.2 mph 9.2 mph 86% 0.00 in 0.0 W/m2
23:26 13.2 °F 9.5 °F 30.45 in WSW 6.9 mph 6.9 mph 85% 0.00 in 0.0 W/m2
23:31 13.2 °F 9.5 °F 30.45 in WSW 8.1 mph 8.1 mph 85% 0.00 in 0.0 W/m2
23:32 13.2 °F 9.5 °F 30.45 in WSW 11.5 mph 11.5 mph 85% 0.00 in 0.0 W/m2
23:37 13.2 °F 9.5 °F 30.45 in West 9.2 mph 9.2 mph 85% 0.00 in 0.0 W/m2
23:42 13.3 °F 9.6 °F 30.44 in WSW 10.4 mph 10.4 mph 85% 0.00 in 0.0 W/m2
23:43 13.2 °F 9.5 °F 30.44 in WSW 10.0 mph 10.0 mph 85% 0.00 in 0.0 W/m2
23:48 13.3 °F 9.6 °F 30.44 in North 8.1 mph 8.1 mph 85% 0.00 in 0.0 W/m2
23:49 13.3 °F 9.6 °F 30.44 in WNW 10.4 mph 10.4 mph 85% 0.00 in 0.0 W/m2
23:51 13.2 °F 9.5 °F 30.44 in WSW 10.4 mph 10.4 mph 85% 0.00 in 0.0 W/m2
23:56 13.2 °F 9.5 °F 30.44 in WSW 10.4 mph 10.4 mph 85% 0.00 in 0.0 W/m2
Bourbonnais, Illinois, USA
Compliments of Weather Underground - 4 mb